TimeEST,TemperatureF,Dew PointF,Humidity,Sea Level PressureIn,VisibilityMPH,Wind Direction,Wind SpeedMPH,Gust SpeedMPH,PrecipitationIn,Events,Conditions,WindDirDegrees,DateUTC
12:53 AM,17.1,10.0,74,30.46,10.0,South,4.6,-,N/A,,Clear,190,2013-01-27 05:53:00
1:53 AM,9.0,5.0,84,30.48,8.0,Calm,Calm,-,N/A,,Clear,0,2013-01-27 06:53:00
2:53 AM,10.0,7.0,87,30.48,8.0,SE,3.5,-,N/A,,Clear,140,2013-01-27 07:53:00
3:53 AM,10.0,6.1,84,30.46,8.0,ESE,3.5,-,N/A,,Clear,110,2013-01-27 08:53:00
4:53 AM,14.0,10.0,84,30.47,10.0,South,3.5,-,N/A,,Clear,190,2013-01-27 09:53:00
5:53 AM,12.0,8.1,84,30.47,8.0,SSE,5.8,-,N/A,,Clear,150,2013-01-27 10:53:00
6:53 AM,16.0,10.9,81,30.48,10.0,South,4.6,-,N/A,,Clear,180,2013-01-27 11:53:00
7:53 AM,16.0,10.0,77,30.47,10.0,South,5.8,-,N/A,,Mostly Cloudy,170,2013-01-27 12:53:00
8:53 AM,17.1,10.9,77,30.48,9.0,ESE,4.6,-,N/A,,Partly Cloudy,110,2013-01-27 13:53:00
9:53 AM,21.9,12.9,68,30.48,10.0,SSE,5.8,-,N/A,,Clear,160,2013-01-27 14:53:00
10:53 AM,26.1,14.0,60,30.48,10.0,South,10.4,-,N/A,,Mostly Cloudy,190,2013-01-27 15:53:00
11:53 AM,27.0,12.9,56,30.46,10.0,South,11.5,21.9,N/A,,Overcast,190,2013-01-27 16:53:00
12:53 PM,27.0,12.9,56,30.45,10.0,South,11.5,-,N/A,,Overcast,190,2013-01-27 17:53:00
1:53 PM,28.0,14.0,56,30.40,10.0,South,10.4,-,N/A,,Overcast,170,2013-01-27 18:53:00
2:53 PM,28.0,15.1,58,30.38,10.0,South,9.2,-,N/A,,Overcast,180,2013-01-27 19:53:00
3:53 PM,28.9,16.0,58,30.34,10.0,SSE,9.2,-,N/A,,Overcast,150,2013-01-27 20:53:00
4:53 PM,28.9,16.0,58,30.34,10.0,SSE,8.1,-,N/A,,Overcast,160,2013-01-27 21:53:00
5:53 PM,28.0,16.0,61,30.34,10.0,SSE,9.2,-,N/A,,Overcast,160,2013-01-27 22:53:00
6:26 PM,26.6,17.6,69,30.30,2.0,South,13.8,19.6,0.00,Snow,Light Snow,170,2013-01-27 23:26:00
6:43 PM,26.6,19.4,74,30.28,2.0,SE,10.4,-,0.00,Snow,Light Snow,140,2013-01-27 23:43:00
6:53 PM,26.1,19.9,78,30.32,2.0,SSE,11.5,-,0.00,Snow,Light Snow,150,2013-01-27 23:53:00
7:00 PM,24.8,21.2,86,30.28,1.0,SE,10.4,-,0.01,Snow,Light Snow,140,2013-01-28 00:00:00
7:53 PM,25.0,21.0,85,30.32,1.0,SSE,9.2,-,0.06,Snow,Light Snow,150,2013-01-28 00:53:00
8:12 PM,24.8,21.2,86,30.25,1.5,SE,12.7,-,0.03,Snow,Light Snow,130,2013-01-28 01:12:00
8:22 PM,24.8,21.2,86,30.23,2.0,SSE,13.8,-,0.04,Snow,Light Snow,150,2013-01-28 01:22:00
8:32 PM,24.8,21.2,86,30.23,1.2,SE,11.5,-,0.05,Snow,Light Snow,140,2013-01-28 01:32:00
8:49 PM,24.8,21.2,86,30.21,0.8,SE,11.5,-,0.08,Snow,Light Snow,140,2013-01-28 01:49:00
8:53 PM,25.0,21.0,85,30.25,1.0,SE,12.7,-,0.09,Snow,Light Snow,140,2013-01-28 01:53:00
9:06 PM,24.8,21.2,86,30.18,0.8,SE,13.8,-,0.01,Snow,Light Snow,130,2013-01-28 02:06:00
9:12 PM,26.6,21.2,80,30.18,1.0,SE,11.5,-,0.02,Snow,Light Snow,130,2013-01-28 02:12:00
9:28 PM,26.6,21.2,80,30.19,2.5,SE,9.2,-,0.03,Snow,Light Snow,140,2013-01-28 02:28:00
9:31 PM,26.6,21.2,80,30.18,3.0,SE,11.5,-,0.03,Snow,Light Snow,130,2013-01-28 02:31:00
9:46 PM,26.6,23.0,86,30.17,4.0,SE,11.5,-,0.04,Rain,Light Freezing Rain,130,2013-01-28 02:46:00
9:53 PM,27.0,23.0,85,30.21,4.0,SE,12.7,-,0.05,Rain,Light Freezing Rain,130,2013-01-28 02:53:00
10:15 PM,28.4,24.8,86,30.17,5.0,SSE,12.7,-,0.01,Rain,Light Freezing Rain,150,2013-01-28 03:15:00
10:53 PM,28.0,24.1,85,30.19,5.0,SE,9.2,-,0.02,Rain,Light Freezing Rain,140,2013-01-28 03:53:00
11:00 PM,28.4,24.8,86,30.15,5.0,SE,10.4,-,0.00,,Overcast,130,2013-01-28 04:00:00
11:24 PM,28.4,24.8,86,30.11,4.0,ESE,12.7,-,0.01,Rain,Light Freezing Rain,120,2013-01-28 04:24:00
11:34 PM,28.4,24.8,86,30.13,4.0,ESE,10.4,19.6,0.02,Rain,Light Freezing Rain,120,2013-01-28 04:34:00
11:50 PM,28.4,24.8,86,30.12,2.5,SE,11.5,-,0.05,Rain,Light Freezing Rain,130,2013-01-28 04:50:00
11:53 PM,28.9,25.0,85,30.15,2.5,SE,10.4,-,0.07,Rain,Light Freezing Rain,140,2013-01-28 04:53:00